User: anonymous   Login
Location: Unspecified
(0.0000°N, 0.0000°E)
Time: 12:05:52
(UTC+02:00)
Language:

Hubble Space Telescope - Orbit

View from above orbital plane
View from above orbital plane
View from above satellite
View from above satellite

Ground track
Ground track

The orbit data is extracted from the following two-line orbital elements,

1 20580U 90037B   18175.92357509 +.00000470 +00000-0 +17794-4 0  9999
2 20580 028.4702 063.9636 0002613 220.3287 242.7262 15.09056118346553
Epoch (UTC): 24 June 2018 22:09:56
Eccentricity: 0.0002613
inclination: 28.4702°
perigee height: 537 km
apogee height: 541 km
right ascension of ascending node: 63.9636°
argument of perigee: 220.3287°
revolutions per day: 15.09056118
mean anomaly at epoch: 242.7262°
orbit number at epoch: 34655

The dashed part of the orbit path shows where the satellite is in the earth's shadow,  

DLR